Regional Weather Roundup
Issued by NWS

Home | Current Version | Previous Version | Graphics & Text | Print | Product List | Glossary On
Versions: 1 2 3 4 5 6 7 8 9 10 11 12 13 14 15 16 17 18 19 20 21 22 23 24 25 26 27 28 29 30 31 32 33 34 35 36 37 38 39 40 41 42 43 44 45 46 47 48 49 50
000
ASUS45 KSLC 222310
RWRUT

UTAH REGIONAL WEATHER ROUNDUP
NATIONAL WEATHER SERVICE SALT LAKE CITY UT
400 PM MST WED FEB 22 2017

UTZ001>011-023>025-230000-

NORTHERN UTAH

CITY           SKY/WX    TMP DP  RH WIND       PRES   REMARKS
BRIGHAM CITY     N/A     40  32  71 E5        29.83F
DUGWAY         LGT SNOW  33  31  94 NW20G30   29.85R VSB 5/8 WCI  21
HILL AFB       CLOUDY    39  29  68 SW8       29.80F WCI  33
LOGAN          CLOUDY    40  32  73 N8        29.82F WCI  34
OGDEN          CLOUDY    39  31  72 SW7       29.81F WCI  34
SALT LAKE CITY CLOUDY    38  33  82 SW9       29.82F WCI  31
TOOELE VALLEY  CLOUDY    37  32  81 SE10      29.84F WCI  30
WENDOVER       CLOUDY    41  23  48 NW7       29.83F
HEBER CITY     LGT SNOW  32  30  93 NW3       29.79F VSB 3/4
WEST JORDAN    CLOUDY    41  36  80 CALM      29.82F

$$

UTZ011>015-024>027-230000-

CENTRAL/NORTHEAST UTAH

CITY           SKY/WX    TMP DP  RH WIND       PRES   REMARKS
PROVO AIRPORT  LGT SNOW  34  30  86 W3        29.81F FOG
MOAB/CANYONLAN MOSUNNY   63  22  20 S22       29.65F
DELTA          CLOUDY    34  32  93 NW16G22   29.80R WCI  23
PRICE          CLOUDY    49  30  48 N7        29.68F
RICHFIELD      MOSUNNY   52  28  40 W14G21    29.72F
ROOSEVELT      MIX PCPN  39  32  75 CALM      29.79F
VERNAL         CLOUDY    40  31  70 NE10      29.78F WCI  33

$$

UTZ013>016-019>022-027-230000-

SOUTHERN UTAH

CITY           SKY/WX    TMP DP  RH WIND       PRES   REMARKS
BRYCE CANYON   MOSUNNY   41  23  48 SW18G28   29.80F
CEDAR CITY     MOSUNNY   51  30  44 S29G37    29.75F
MILFORD        PTSUNNY   54  22  28 S24G39    29.73F
ST GEORGE      CLOUDY    61  32  33 W17       29.76F
HANKSVILLE     SUNNY     63  21  20 SW17G28   29.68F
KANAB          MOSUNNY   59  25  27 SW17G26   29.80F
BLANDING       PTSUNNY   57  15  19 SW18G25   29.86F

$$

REGIONAL REPORTS     COLORADO/ARIZONA

CITY           SKY/WX    TMP DP  RH WIND       PRES   REMARKS
CRAIG, CO      CLOUDY    36  27  69 N5        29.81F WCI  32
GRAND JUNCTION PTSUNNY   60  28  29 NW13G18   29.68F
RIFLE, CO      CLOUDY    56  27  32 W14       29.70F
MONTROSE, CO   CLOUDY    58  21  24 SW30G37   29.77F
CORTEZ, CO     CLOUDY    59  21  23 SW20G33   29.83F
COLORADO CITY    N/A     59  30  33 W20       29.82F
PAGE, AZ       PTSUNNY   64  15  15 SW15G25   29.71F
GRAND CANYON   CLOUDY    49  27  42 SW23G41   29.88F
KINGMAN, AZ    MOSUNNY   63  19  18 SW26G36   29.86F
FLAGSTAFF, AZ  CLOUDY    46  34  62 SW18G26   29.95F

$$

REGIONAL REPORTS    NEVADA/IDAHO/WYOMING

CITY           SKY/WX    TMP DP  RH WIND       PRES   REMARKS
LAS VEGAS, NV  MOSUNNY   63  25  23 SW13G20   29.79F
ELY, NY        CLOUDY    30  17  58 NW10      29.89F WCI  21
ELKO, NV       PTSUNNY   38  15  39 SW22G32   29.85F WCI  27
POCATELLO, ID  MOSUNNY   39  23  52 NW6       29.85F WCI  35
BURLEY, ID     CLOUDY    36  30  79 N7        29.83S WCI  30
FORT BRIDGER,  FLURRIES  30  29  97 NE5       29.84F WCI  25
EVANSTON, WY   LGT SNOW  29  24  82 NE3       29.79F
ROCK SPRINGS,  CLOUDY    31  21  66 CALM      29.82F
KEMMERER, WY     N/A     30  21  69 NW3       29.81F

$$



USA.gov is the U.S. government's official web portal to all federal, state and local government web resources and services.